Location: Newark
(39.0622°N, 106.5590°E)
Time: 18:41:33
(UTC+00:00)

Vanguard 2 Rocket - Pass Details

Date: 26 January 2020
Orbit: 554 x 3327 km, 32.9° (Epoch: 22 February)

Event Time Altitude Azimuth Distance (km) Brightness Sun altitude
Rises 00:18:39 0° 263° (W) 3,115 9.1 1.4°
Reaches altitude 10° 00:20:41 10° 258° (WSW) 2,376 8.6 1.8°
Maximum altitude 00:26:01 49° 183° (S) 1,373 8.1 2.7°
Drops below altitude 10° 00:35:04 10° 112° (ESE) 3,972 12.8 4.2°
Sets 00:39:27 0° 109° (ESE) 5,445 13.1 5.0°
